Location: Cuiry
(49.3858°N, 3.7708°E)
Time: 04:27:04
(UTC+00:00)

Cosmos 1980 Rocket - Visible Passes

Search period start: 21 April 2026 00:00
Search period end: 01 May 2026 00:00
Orbit: 827 x 850 km, 71.0° (Epoch: 20 April)

Date Brightness Start Highest point End Pass type
(mag) Time Alt. Az. Time Alt. Az. Time Alt. Az.
21 Apr 2.2 00:35:06 10° NNW 00:40:19 67° W 00:40:19 67° W visible
21 Apr 4.3 02:21:43 10° WNW 02:22:02 11° WNW 02:22:02 11° WNW visible
21 Apr 3.9 22:35:24 10° NNW 22:40:08 26° NE 22:42:36 19° E visible
22 Apr 2.2 00:19:00 10° NNW 00:24:19 71° W 00:24:19 71° W visible
22 Apr 4.3 02:05:16 10° WNW 02:06:03 11° WNW 02:06:03 11° WNW visible
22 Apr 3.9 22:19:20 10° NNW 22:23:59 25° NE 22:26:39 18° E visible
23 Apr 2.1 00:02:54 10° NNW 00:08:22 77° W 00:08:22 77° W visible
23 Apr 4.2 01:48:54 10° WNW 01:50:05 12° WNW 01:50:05 12° WNW visible
23 Apr 4.0 22:03:17 10° NNW 22:07:51 24° NE 22:10:43 17° E visible
23 Apr 2.1 23:46:48 10° NNW 23:52:27 83° W 23:52:27 83° W visible
24 Apr 4.2 01:32:34 10° WNW 01:34:10 14° W 01:34:10 14° W visible
24 Apr 4.0 21:47:14 10° N 21:51:43 23° NE 21:54:50 15° E visible
24 Apr 2.1 23:30:43 10° NNW 23:36:28 88° WSW 23:36:33 87° S visible
25 Apr 4.1 01:16:17 10° WNW 01:18:16 15° W 01:18:16 15° W visible
25 Apr 4.1 21:31:12 10° N 21:35:33 22° NE 21:38:58 13° E visible
25 Apr 2.0 23:14:38 10° NNW 23:20:23 87° ENE 23:20:41 81° SE visible
26 Apr 4.1 01:00:01 10° WNW 01:02:25 16° W 01:02:25 16° W visible
26 Apr 4.1 21:15:09 10° N 21:19:24 21° NE 21:23:07 12° E visible
26 Apr 2.1 22:58:33 10° NNW 23:04:18 83° ENE 23:04:51 73° SE visible
27 Apr 4.0 00:43:47 10° WNW 00:46:35 18° W 00:46:35 18° W visible
27 Apr 4.1 20:59:06 10° N 21:03:15 20° NE 21:07:18 10° E visible
27 Apr 2.1 22:42:28 10° NNW 22:48:12 78° ENE 22:49:02 65° SE visible
28 Apr 3.9 00:27:33 10° NW 00:30:46 19° W 00:30:46 19° W visible
28 Apr 4.1 20:43:04 10° N 20:47:07 19° NE 20:51:08 10° E visible
28 Apr 2.2 22:26:23 10° NNW 22:32:07 74° ENE 22:33:15 57° ESE visible
29 Apr 3.8 00:11:21 10° NW 00:14:59 21° W 00:14:59 21° W visible
29 Apr 4.2 20:27:02 10° N 20:30:57 18° NE 20:34:51 10° E visible
29 Apr 2.3 22:10:18 10° NNW 22:16:01 70° ENE 22:17:29 49° ESE visible
29 Apr 3.7 23:55:10 10° NW 23:59:13 22° W 23:59:13 22° W visible
30 Apr 4.2 20:11:00 10° N 20:14:48 18° NE 20:18:35 10° ENE visible
30 Apr 2.3 21:54:14 10° NNW 21:59:56 66° ENE 22:01:45 42° ESE visible
30 Apr 3.6 23:38:59 10° NW 23:43:25 24° WSW 23:43:29 24° WSW visible
